This is the latest recevied weather packets stored in our database for station/object AA0PB. If no packets are shown the sender has not sent any weather packets the latest 10 day(s).
| Time | Temp. | Humidity | Pressure | Rain* | Wind** | Luminosity | Snow |
|---|---|---|---|---|---|---|---|
| 1777680263 | 25° C | 45% | 1014.6 hPa | 0 mm | - | 298 W/m² | - |
| 1777679958 | 25° C | 45% | 1014.6 hPa | 0 mm | - | 339 W/m² | - |
| 1777679654 | 23.89° C | 49% | 1014.4 hPa | 0 mm | - | 409 W/m² | - |
| 1777679349 | 25.56° C | 46% | 1014.5 hPa | 0 mm | - | 398 W/m² | - |
| 1777679047 | 24.44° C | 43% | 1014.6 hPa | 0 mm | - | 380 W/m² | - |
| 1777678745 | 23.89° C | 47% | 1014.6 hPa | 0 mm | - | 306 W/m² | - |
| 1777678442 | 24.44° C | 47% | 1014.4 hPa | 0 mm | - | 392 W/m² | - |
| 1777678137 | 23.89° C | 47% | 1014.7 hPa | 0 mm | - | 458 W/m² | - |
| 1777677835 | 24.44° C | 46% | 1014.7 hPa | 0 mm | - | 444 W/m² | - |
| 1777677532 | 24.44° C | 45% | 1014.7 hPa | 0 mm | - | 449 W/m² | - |
| 1777677230 | 25° C | 44% | 1014.7 hPa | 0 mm | - | 475 W/m² | - |
| 1777676928 | 23.89° C | 45% | 1014.9 hPa | 0 mm | - | 501 W/m² | - |
| 1777676627 | 24.44° C | 46% | 1014.6 hPa | 0 mm | - | 502 W/m² | - |
| 1777676324 | 24.44° C | 48% | 1015.1 hPa | 0 mm | - | 497 W/m² | - |
| 1777676022 | 25° C | 46% | 1015.1 hPa | 0 mm | - | 525 W/m² | - |
| 1777675717 | 25° C | 45% | 1015.1 hPa | 0 mm | - | 538 W/m² | - |
| 1777675415 | 25° C | 46% | 1015.3 hPa | 0 mm | - | 540 W/m² | - |
| 1777675111 | 24.44° C | 46% | 1015.3 hPa | 0 mm | - | 356 W/m² | - |
| 1777674807 | 24.44° C | 46% | 1015.4 hPa | 0 mm | - | 521 W/m² | - |
| 1777674504 | 23.89° C | 45% | 1015.3 hPa | 0 mm | - | 494 W/m² | - |
| 1777674202 | 23.89° C | 47% | 1015.4 hPa | 0 mm | - | 479 W/m² | - |
| 1777673898 | 23.89° C | 46% | 1015.4 hPa | 0 mm | - | 524 W/m² | - |
| 1777673595 | 23.89° C | 48% | 1015.3 hPa | 0 mm | - | 566 W/m² | - |
| 1777673293 | 23.89° C | 46% | 1015.7 hPa | 0 mm | - | 580 W/m² | - |
| 1777672989 | 23.89° C | 47% | 1015.6 hPa | 0 mm | - | 486 W/m² | - |
* Rain latest hour (hover to see other rain measurements)
** Current wind speed in m/s (hover to see current wind gust speed)